Hourly Weather Bastimentos

Today, 19 June, Saturday

Time Temperature Precipitation Wind Pressure Humidity
00:00 +27°C° 0 mm 1 mps 757 mmHg 92%
01:00 +26°C° 0 mm 1 mps 757 mmHg 93%
02:00 +26°C° 0.1 mm 1 mps 757 mmHg 92%
03:00 +26°C° 0.1 mm 2 mps 756 mmHg 91%
04:00 +26°C° 0.1 mm 2 mps 756 mmHg 90%
05:00 +26°C° 0.2 mm 2 mps 757 mmHg 88%
06:00 +26°C° 0.2 mm 1 mps 757 mmHg 87%
07:00 +26°C° 0.2 mm 1 mps 757 mmHg 85%
08:00 +28°C° 0 mm 1 mps 758 mmHg 78%
09:00 +30°C° 0 mm 1 mps 758 mmHg 70%
10:00 +30°C° 0 mm 0 mps 758 mmHg 63%
11:00 +33°C° 0 mm 1 mps 758 mmHg 61%
12:00 +33°C° 0 mm 1 mps 757 mmHg 59%
13:00 +34°C° 0 mm 1 mps 757 mmHg 57%
14:00 +35°C° 0 mm 2 mps 756 mmHg 60%
15:00 +34°C° 0 mm 2 mps 756 mmHg 64%
16:00 +32°C° 0 mm 2 mps 755 mmHg 67%
17:00 +31°C° 0 mm 2 mps 756 mmHg 74%
18:00 +30°C° 0 mm 1 mps 756 mmHg 80%
19:00 +29°C° 0 mm 1 mps 757 mmHg 87%
20:00 +28°C° 0 mm 1 mps 757 mmHg 88%
21:00 +26°C° 0 mm 0 mps 758 mmHg 89%
22:00 +26°C° 0 mm 0 mps 758 mmHg 90%
23:00 +28°C° 0 mm 1 mps 758 mmHg 90%

Tomorrow, 20 June, Sunday

Time Temperature Precipitation Wind Pressure Humidity
00:00 +27°C° 0 mm 1 mps 757 mmHg 90%
01:00 +27°C° 0 mm 1 mps 757 mmHg 90%
02:00 +27°C° 0 mm 1 mps 757 mmHg 90%
03:00 +27°C° 0 mm 1 mps 756 mmHg 90%
04:00 +27°C° 0 mm 1 mps 756 mmHg 89%
05:00 +27°C° 0 mm 1 mps 757 mmHg 88%
06:00 +27°C° 0 mm 1 mps 757 mmHg 87%
07:00 +27°C° 0 mm 2 mps 757 mmHg 87%
08:00 +29°C° 0 mm 2 mps 758 mmHg 79%
09:00 +31°C° 0 mm 2 mps 758 mmHg 72%
10:00 +32°C° 0 mm 1 mps 758 mmHg 65%
11:00 +34°C° 0 mm 2 mps 758 mmHg 62%
12:00 +35°C° 0 mm 2 mps 757 mmHg 60%
13:00 +35°C° 0 mm 3 mps 757 mmHg 57%
14:00 +35°C° 0 mm 3 mps 757 mmHg 60%
15:00 +34°C° 0 mm 3 mps 756 mmHg 62%
16:00 +34°C° 0 mm 3 mps 756 mmHg 65%
17:00 +31°C° 0 mm 3 mps 756 mmHg 73%
18:00 +30°C° 0 mm 2 mps 757 mmHg 81%
19:00 +28°C° 0 mm 2 mps 757 mmHg 88%
20:00 +28°C° 0.1 mm 2 mps 757 mmHg 89%
21:00 +28°C° 0.1 mm 2 mps 757 mmHg 90%
22:00 +28°C° 0.1 mm 2 mps 757 mmHg 90%
23:00 +28°C° 1.8 mm 2 mps 757 mmHg 91%

Day after tomorrow, 21 June, Monday

Time Temperature Precipitation Wind Pressure Humidity
00:00 +27°C° 1.8 mm 2 mps 757 mmHg 91%
01:00 +27°C° 1.8 mm 2 mps 757 mmHg 92%
02:00 +27°C° 0.1 mm 3 mps 756 mmHg 91%
03:00 +27°C° 0.1 mm 3 mps 756 mmHg 91%
04:00 +27°C° 0.1 mm 4 mps 756 mmHg 91%
05:00 +27°C° 1 mm 4 mps 756 mmHg 91%
06:00 +27°C° 1 mm 4 mps 756 mmHg 90%
07:00 +27°C° 1 mm 3 mps 757 mmHg 90%
08:00 +28°C° 1 mm 3 mps 757 mmHg 86%
09:00 +29°C° 1 mm 3 mps 757 mmHg 82%
10:00 +30°C° 1 mm 3 mps 758 mmHg 79%
11:00 +31°C° 0 mm 3 mps 757 mmHg 75%
12:00 +33°C° 0 mm 4 mps 757 mmHg 72%
13:00 +33°C° 0 mm 4 mps 756 mmHg 69%
14:00 +33°C° 0.4 mm 4 mps 756 mmHg 73%
15:00 +32°C° 0.4 mm 4 mps 756 mmHg 77%
16:00 +32°C° 0.4 mm 4 mps 755 mmHg 81%
17:00 +30°C° 3.3 mm 3 mps 756 mmHg 85%
18:00 +28°C° 3.3 mm 2 mps 756 mmHg 90%
19:00 +27°C° 3.3 mm 1 mps 756 mmHg 95%
20:00 +27°C° 1 mm 2 mps 757 mmHg 95%
21:00 +27°C° 1 mm 3 mps 757 mmHg 94%
22:00 +27°C° 1 mm 3 mps 757 mmHg 93%
23:00 +27°C° 0 mm 3 mps 757 mmHg 93%

22 June, Tuesday

Time Temperature Precipitation Wind Pressure Humidity
00:00 +27°C° 0 mm 3 mps 757 mmHg 93%
01:00 +27°C° 0 mm 2 mps 756 mmHg 93%
02:00 +27°C° 0 mm 2 mps 756 mmHg 92%
03:00 +26°C° 0 mm 2 mps 756 mmHg 92%
04:00 +26°C° 0 mm 1 mps 756 mmHg 91%
05:00 +26°C° 0.4 mm 2 mps 756 mmHg 91%
06:00 +26°C° 0.4 mm 2 mps 757 mmHg 90%
07:00 +26°C° 0.4 mm 2 mps 757 mmHg 90%
08:00 +28°C° 0.9 mm 2 mps 757 mmHg 85%
09:00 +29°C° 0.9 mm 1 mps 758 mmHg 80%
10:00 +31°C° 0.9 mm 1 mps 758 mmHg 74%
11:00 +31°C° 1.1 mm 1 mps 758 mmHg 76%
12:00 +31°C° 1.1 mm 2 mps 758 mmHg 77%
13:00 +31°C° 1.1 mm 2 mps 758 mmHg 79%
14:00 +30°C° 1.3 mm 2 mps 757 mmHg 82%
15:00 +29°C° 1.3 mm 2 mps 757 mmHg 85%
16:00 +29°C° 1.3 mm 3 mps 756 mmHg 88%
17:00 +28°C° 1 mm 2 mps 757 mmHg 89%
18:00 +28°C° 1 mm 2 mps 757 mmHg 91%
19:00 +27°C° 1 mm 2 mps 757 mmHg 92%
20:00 +27°C° 0.1 mm 2 mps 757 mmHg 92%
21:00 +27°C° 0.1 mm 2 mps 758 mmHg 92%
22:00 +27°C° 0.1 mm 2 mps 758 mmHg 92%
23:00 +27°C° 0 mm 2 mps 758 mmHg 92%

23 June, Wednesday

Time Temperature Precipitation Wind Pressure Humidity
00:00 +27°C° 0 mm 1 mps 757 mmHg 91%
01:00 +26°C° 0 mm 1 mps 757 mmHg 91%
02:00 +26°C° 0 mm 1 mps 757 mmHg 92%
03:00 +26°C° 0 mm 1 mps 757 mmHg 93%
04:00 +26°C° 0 mm 2 mps 757 mmHg 94%
05:00 +26°C° 0.4 mm 2 mps 757 mmHg 93%
06:00 +26°C° 0.4 mm 2 mps 757 mmHg 92%
07:00 +26°C° 0.4 mm 2 mps 758 mmHg 91%
08:00 +27°C° 0.8 mm 2 mps 758 mmHg 88%
09:00 +28°C° 0.8 mm 2 mps 758 mmHg 85%
10:00 +29°C° 0.8 mm 2 mps 759 mmHg 82%
11:00 +30°C° 1.8 mm 2 mps 759 mmHg 80%
12:00 +30°C° 1.8 mm 2 mps 758 mmHg 78%
13:00 +31°C° 1.8 mm 3 mps 758 mmHg 75%
14:00 +30°C° 1.2 mm 3 mps 758 mmHg 78%
15:00 +30°C° 1.2 mm 3 mps 757 mmHg 81%
16:00 +29°C° 1.2 mm 3 mps 757 mmHg 84%
17:00 +29°C° 0.9 mm 3 mps 757 mmHg 86%
18:00 +28°C° 0.9 mm 3 mps 757 mmHg 89%
19:00 +27°C° 0.9 mm 4 mps 757 mmHg 91%
20:00 +27°C° 0.1 mm 4 mps 758 mmHg 90%
21:00 +27°C° 0.1 mm 3 mps 758 mmHg 90%
22:00 +26°C° 0.1 mm 3 mps 758 mmHg 89%
23:00 +26°C° 0 mm 3 mps 758 mmHg 88%

24 June, Thursday

Time Temperature Precipitation Wind Pressure Humidity
00:00 +26°C° 0 mm 3 mps 757 mmHg 87%
01:00 +25°C° 0 mm 3 mps 757 mmHg 86%
02:00 +25°C° 0.2 mm 3 mps 757 mmHg 86%
03:00 +25°C° 0.2 mm 3 mps 757 mmHg 85%
04:00 +25°C° 0.2 mm 3 mps 757 mmHg 85%
05:00 +25°C° 0.8 mm 4 mps 757 mmHg 85%
06:00 +25°C° 0.8 mm 4 mps 757 mmHg 84%
07:00 +25°C° 0.8 mm 4 mps 758 mmHg 84%
08:00 +26°C° 1 mm 5 mps 758 mmHg 82%
09:00 +27°C° 1 mm 5 mps 758 mmHg 80%
10:00 +28°C° 1 mm 5 mps 759 mmHg 78%
11:00 +29°C° 0.8 mm 6 mps 758 mmHg 79%
12:00 +29°C° 0.8 mm 6 mps 758 mmHg 79%
13:00 +29°C° 0.8 mm 6 mps 758 mmHg 80%
14:00 +29°C° 0.4 mm 6 mps 757 mmHg 81%
15:00 +29°C° 0.4 mm 5 mps 757 mmHg 82%
16:00 +29°C° 0.4 mm 5 mps 756 mmHg 84%
17:00 +28°C° 1 mm 5 mps 757 mmHg 86%
18:00 +27°C° 1 mm 4 mps 757 mmHg 88%
19:00 +27°C° 1 mm 4 mps 757 mmHg 91%
20:00 +26°C° 0.8 mm 3 mps 758 mmHg 91%
21:00 +26°C° 0.8 mm 3 mps 758 mmHg 91%
22:00 +26°C° 0.8 mm 2 mps 759 mmHg 91%
23:00 +26°C° 0 mm 2 mps 758 mmHg 91%
Show more